[Iaude] MPEC F146: 2016 TP11 [a=1.04,e=0.18,i=1.5,H=24.3]

mpec at mpcdb1.cfa.harvard.edu mpec at mpcdb1.cfa.harvard.edu
Thu Mar 29 06:31:16 EDT 2018


M.P.E.C. 2018-F146                               Issued 2018 Mar. 29, 10:28 UT
 
     The Minor Planet Electronic Circulars contain information on unusual
         minor planets and routine data on comets.  They are published
    on behalf of Division F of the International Astronomical Union by the
          Minor Planet Center, Smithsonian Astrophysical Observatory,
                          Cambridge, MA 02138, U.S.A.

             Prepared using the Tamkin Foundation Computer Network

                              MPC at CFA.HARVARD.EDU
            URL https://www.minorplanetcenter.net/    ISSN 1523-6714


                                   2016 TP11
 
                           Revision to MPEC 2016-T77
 
Additional Observations:
     K16T11P  C2015 01 18.39549 09 03 58.722+10 23 01.84         22.2 GUEF146F51
     K16T11P  C2015 01 18.40911 09 03 56.561+10 23 10.17         22.1 GUEF146F51
     K16T11P  C2015 01 18.42260 09 03 54.403+10 23 18.62         22.6 GUEF146F51
     K16T11P  C2015 01 18.43611 09 03 52.272+10 23 27.51         21.6 GUEF146F51
     K16T11P  C2015 01 20.53855 08 58 33.059+10 46 06.17         21.8 GUEF146F51
     K16T11P  C2015 01 20.55113 08 58 30.892+10 46 14.66         21.7 GUEF146F51
     K16T11P  C2015 01 20.56369 08 58 28.729+10 46 23.06         22.0 GUEF146F51
     K16T11P  C2015 01 24.51198 08 47 24.417+11 35 26.76         21.8 GUEF146F51
     K16T11P  C2015 01 24.53951 08 47 19.078+11 35 48.18         22.0 GUEF146F51
     K16T11P  C2015 01 26.50312 08 41 20.024+12 02 57.94         21.8 GUEF146F51
     K16T11P  C2015 02 20.23679 07 23 05.466+18 18 11.73         20.6 GUEF146F51
     K16T11P  C2015 02 20.24991 07 23 03.335+18 18 22.77         20.7 GUEF146F51
     K16T11P  C2015 02 20.26307 07 23 01.164+18 18 33.45         22.5 GUEF146F51
     K16T11P  C2015 02 20.27624 07 22 59.032+18 18 43.72         22.3 GUEF146F51
 
Observer details:
F51 Pan-STARRS 1, Haleakala.  Observers B. Gibson, T. Goggia, N. Primak,
    A. Schultz, M. Willman.  Measurers R. Weryk, R. Wainscoat.  1.8-m
    Ritchey-Chretien + CCD.
 
First and last observations above in comparison with prediction:
Residuals in seconds of arc, reference and Delta-T
150118 F51 48.4- 12.2+    150220 F51 45.3-  7.8+    MPO438029   -0.019 day
 
Orbital elements:
2016 TP11                                                Earth MOID = 0.0081 AU
Epoch 2018 Mar. 23.0 TT = JDT 2458200.5                 MPC
M 214.74807              (2000.0)            P               Q
n   0.93384666     Peri.  108.14426     +0.11772795     +0.99303176
a   1.0366186      Node   168.61284     -0.92094306     +0.11117395
e   0.1775729      Incl.    1.53742     -0.37148892     +0.03909327
P   1.06           H   24.3           G   0.15           U   4
Residuals in seconds of arc
150118 F51  0.0   0.1+    161007 H21  0.4+  0.0     161014 H21  0.1-  0.6+
150118 F51  0.2-  0.1-    161007 H21  0.4+  0.0     161019 H21  1.2+  0.4-
150118 F51  0.5-  0.1-    161007 H21  0.2+  0.1+    161019 H21  1.0+  0.6-
150118 F51  0.2-  0.4+    161007 850  0.3+  0.1+    161019 H21  0.5+  0.6-
150120 F51  0.1+  0.3-    161007 850  0.2+  0.3-    161019 926  0.0   0.1+
150120 F51  0.1+  0.2-    161007 850  0.0   0.2+    161019 926  0.1-  0.1+
150120 F51  0.1-  0.1-    161007 850  1.5-  0.4+    161019 926  0.2+  0.1+
150124 F51  0.1-  0.1-    161007 850  0.6-  0.1+    161020 926  0.1+  0.0
150124 F51  0.1-  0.2-    161007 I52  0.2+  0.1-    161020 926  0.0   0.3+
150126 F51  0.1-  0.2-    161007 G96  0.4+  0.2-    161026 I52  0.3+  0.1-
150220 F51  0.1+  0.1-    161007 I52  0.2+  0.0     161026 I52  0.6+  0.3-
150220 F51  0.3+  0.2+    161007 G96  0.1+  0.1+    161026 I52  0.1+  0.3-
150220 F51  0.0   0.2+    161007 G96  0.5+  0.2-    161026 I52  0.1-  0.4-
150220 F51  0.5+  0.1-    161007 I52  0.2+  0.2-    161027 691  0.4+  0.1+
161006 703 (1.2-  1.6-)   161007 G96  0.1+  0.0     161027 691  0.4-  0.0
161006 703  0.0   0.3+    161007 I52  0.2+  0.1-    161027 691  0.1-  0.2-
161006 703  0.2-  0.4-    161008 I52  0.1+  0.1+    161027 F51  0.0   0.2+
161006 703  0.9-  1.3+    161008 I52  0.4-  1.1-    161027 F51  0.0   0.3+
161006 703  0.9-  0.2+    161008 I52  0.1+  0.2-    161027 F51  0.2-  0.2+
161006 703  0.2-  0.5-    161008 I52  0.1-  0.6+    161027 F51  0.1-  0.3+
161006 703  0.1-  0.3-    161009 T05  1.5+  1.3-    161029 691  0.8+  0.3-
161006 900  0.7-  0.3-    161009 T05  0.4+  0.3-    161029 691  0.7+  0.3+
161006 900  0.2+  0.1-    161009 T05  1.0-  0.3+    161029 691  0.3-  0.5+
161006 900  0.6+  0.0     161009 T05  0.5+  0.5+    161102 691  1.1-  0.6-
161006 300  0.3+  0.1-    161012 204  0.5+  0.1-    161102 691  0.5+  0.1-
161006 300  0.2+  0.1-    161012 204  0.1-  0.0     161102 691  0.6-  0.1+
161006 300  0.6+  0.1+    161012 204  0.2+  0.1+    161103 T12  0.2+  0.1+
161006 300  0.0   0.4-    161013 691  0.5-  0.1+    161105 T12  0.3+  0.0
161007 958  1.0-  0.7-    161013 691  0.4+  0.0     161107 291  0.5-  0.2-
161007 958  0.4-  0.4-    161013 691  0.5-  0.1+    161107 291  0.7-  0.3-
161007 958  0.8-  0.3-    161013 926  0.0   0.1-    161107 291  0.2+  0.3+
161007 H21  0.3+  0.0     161013 926  0.2-  0.1+    161108 291  0.0   0.2+
161007 H21  0.4+  0.1-    161013 926  0.0   0.2+    161108 291  0.2+  0.1+
161007 H21  0.5+  0.1-    161014 H21  0.3-  0.8+    161108 291  0.2+  0.1+
161007 H21  0.3+  0.0     161014 H21  0.0   0.7+

Ephemeris:
2016 TP11                a,e,i = 1.04, 0.18, 2                   q = 0.8525
Date    TT    R. A. (2000) Decl.     Delta      r     Elong.  Phase     V
2018 02 27    03 26 30.1 +17 02 54   0.9988  1.2176    75.5    51.9    26.6
...
2018 03 14    04 10 29.1 +19 39 14   1.0751  1.2067    71.2    51.3    26.8
...
2018 03 22    04 34 36.8 +20 45 10   1.1110  1.1978    69.0    51.0    26.8
...
2018 03 28    04 53 01.7 +21 25 56   1.1353  1.1897    67.4    50.8    26.8
2018 03 29    04 56 07.3 +21 31 59   1.1392  1.1882    67.2    50.7    26.8
2018 03 30    04 59 13.4 +21 37 48   1.1430  1.1867    66.9    50.7    26.8
...
2018 04 05    05 17 58.9 +22 07 59   1.1642  1.1770    65.4    50.6    26.9
...
2018 04 13    05 43 23.2 +22 35 13   1.1888  1.1623    63.4    50.5    26.9
...
2018 04 28    06 32 08.5 +22 43 44   1.2222  1.1298    60.0    50.5    26.9

A. U. Tomatic                (C) Copyright 2018 MPC           M.P.E.C. 2018-F146



More information about the Iaude mailing list